Elk Point, SD

8:34 PM CDT on May 24, 2015 (GMT -0500)
Rural Elk Point | | Change Station
CLOSE
Current Station
Personal Weather Station
Location: Elk Point, SD
Elevation: 1119 ft
Nearby Weather Stations

Elev 1119 ft 42.63 °N, 96.64 °W | Updated 4 minutes ago

Overcast
Overcast
63.0 °F
Feels Like 63.0 °F
N
2.2
Wind Variable Wind from NW
Gusts 3.1 mph

Today
High -- | Low -- °F
--% Chance of Precip.
Yesterday
High -- | Low -- °F
Precip. -- in
5:56 AM 8:50 PM
Waxing Crescent, 44% visible
Pressure 29.76 in
Visibility 5.0 miles
Clouds Few 300 ft
Mostly Cloudy 1800 ft
Overcast 4000 ft
Dew Point 59 °F
Humidity 88%
Rainfall 0.07 in
Snow Depth Not available.
UV 0 out of 12
Pollen 2.90 out of 12
Air Quality Not available.
Flu Activity Sporadic
SPECI KSUX 250127Z AUTO 36003KT 5SM BR FEW003 BKN018 OVC040 17/16 A2976 RMK AO2 T01720156

More Conditions Fewer Conditions

Pressure 29.76 in
Visibility 5.0 miles
Clouds Few 300 ft
Mostly Cloudy 1800 ft
Overcast 4000 ft
Dew Point 59 °F
Humidity 88%
Rainfall 0.07 in
Snow Depth Not available.
UV 0 out of 12
Pollen 2.90 out of 12
Air Quality Not available.
Flu Activity Sporadic
SPECI KSUX 250127Z AUTO 36003KT 5SM BR FEW003 BKN018 OVC040 17/16 A2976 RMK AO2 T01720156

More Conditions Fewer Conditions

10-Day Weather Forecast

Almanac

Astronomy

May. 24, 2015 Rise Set
Actual Time
Civil Twilight
Nautical Twilight
Astronomical Twilight
Moon
Length of Visible Light
Length of Day
Tomorrow will be .
, % of the Moon is Illuminated

Today's Extremes

State Highs State Lows

Community

WunderPhotos

Upload Photos

1,823,918 photos uploaded!

WunderBlogs® & News

Nearby

Air Quality

  Air Quality AQ Index Pollutant
Not available.

Snow Depth

Station Depth Elevation

Earthquake Activity

City Distance Mag. Time & Date
Minimum magnitude displayed is 2.5.

Coastal Water Temperatures

Place Temperature

Stations

Nearby Weather Stations

Station Location Temp. Windchill Dew Point Humidity Wind Precip. Elev Updated Type